owner,sensor,date,latitude,longitude,vertical_datum,sea_water_practical_salinity,qcFlag 
COMPS,ioos:station:USF.COMPS:ANC:1,2012-05-01T00:00:00Z,28.1930,-82.7890,1.0,27.92,1111122 
COMPS,ioos:station:USF.COMPS:ANC:1,2012-05-01T00:06:00Z,28.1930,-82.7890,1.0,27.952,1111122 
COMPS,ioos:station:USF.COMPS:ANC:1,2012-05-01T00:12:00Z,28.1930,-82.7890,1.0,27.957,1111122 
COMPS,ioos:station:USF.COMPS:ANC:1,2012-05-01T00:18:00Z,28.1930,-82.7890,1.0,27.95,1111122 
COMPS,ioos:station:USF.COMPS:ANC:1,2012-05-01T00:24:00Z,28.1930,-82.7890,1.0,27.956,1111122 
COMPS,ioos:station:USF.COMPS:ANC:1,2012-05-01T00:30:00Z,28.1930,-82.7890,1.0,27.966,1111122 
COMPS,ioos:station:USF.COMPS:ANC:1,2012-05-01T00:36:00Z,28.1930,-82.7890,1.0,27.964,1111122 
COMPS,ioos:station:USF.COMPS:ANC:1,2012-05-01T00:42:00Z,28.1930,-82.7890,1.0,27.962,1111122 
COMPS,ioos:station:USF.COMPS:ANC:1,2012-05-01T00:48:00Z,28.1930,-82.7890,1.0,27.96,1111122 
COMPS,ioos:station:USF.COMPS:ANC:1,2012-05-01T00:54:00Z,28.1930,-82.7890,0.0,27.968,1111122 
COMPS,ioos:station:USF.COMPS:ANC:1,2012-05-01T01:00:00Z,28.1930,-82.7890,1.0,27.96,1111122 
COMPS,ioos:station:USF.COMPS:ANC:1,2012-05-01T01:06:00Z,28.1930,-82.7890,1.0,27.944,1111122 
COMPS,ioos:station:USF.COMPS:ANC:1,2012-05-01T01:12:00Z,28.1930,-82.7890,1.0,27.929,1111122 
COMPS,ioos:station:USF.COMPS:ANC:1,2012-05-01T01:18:00Z,28.1930,-82.7890,1.0,27.926,1111122 
COMPS,ioos:station:USF.COMPS:ANC:1,2012-05-01T01:24:00Z,28.1930,-82.7890,1.0,27.923,1111122 
COMPS,ioos:station:USF.COMPS:ANC:1,2012-05-01T01:30:00Z,28.1930,-82.7890,1.0,27.914,1111122 
COMPS,ioos:station:USF.COMPS:ANC:1,2012-05-01T01:36:00Z,28.1930,-82.7890,1.0,27.919,1111122 
COMPS,ioos:station:USF.COMPS:ANC:1,2012-05-01T01:42:00Z,28.1930,-82.7890,1.0,27.915,1111122 
COMPS,ioos:station:USF.COMPS:ANC:1,2012-05-01T01:48:00Z,28.1930,-82.7890,1.0,27.911,1111122 
COMPS,ioos:station:USF.COMPS:ANC:1,2012-05-01T01:54:00Z,28.1930,-82.7890,1.0,27.9,1111122 
COMPS,ioos:station:USF.COMPS:ANC:1,2012-05-01T02:00:00Z,28.1930,-82.7890,1.0,27.886,1111122 
COMPS,ioos:station:USF.COMPS:ANC:1,2012-05-01T02:06:00Z,28.1930,-82.7890,1.0,27.916,1111122 
COMPS,ioos:station:USF.COMPS:ANC:1,2012-05-01T02:12:00Z,28.1930,-82.7890,1.0,27.907,1111122 
COMPS,ioos:station:USF.COMPS:ANC:1,2012-05-01T02:18:00Z,28.1930,-82.7890,1.0,27.912,1111122 
COMPS,ioos:station:USF.COMPS:ANC:1,2012-05-01T02:24:00Z,28.1930,-82.7890,1.0,27.915,1111122 
COMPS,ioos:station:USF.COMPS:ANC:1,2012-05-01T02:30:00Z,28.1930,-82.7890,1.0,27.924,1111122 
COMPS,ioos:station:USF.COMPS:ANC:1,2012-05-01T02:36:00Z,28.1930,-82.7890,1.0,27.936,1111122 
COMPS,ioos:station:USF.COMPS:ANC:1,2012-05-01T02:42:00Z,28.1930,-82.7890,1.0,27.951,1111122 
COMPS,ioos:station:USF.COMPS:ANC:1,2012-05-01T02:48:00Z,28.1930,-82.7890,1.0,27.959,1111122 
COMPS,ioos:station:USF.COMPS:ANC:1,2012-05-01T02:54:00Z,28.1930,-82.7890,0.0,27.942,1111122 
COMPS,ioos:station:USF.COMPS:ANC:1,2012-05-01T03:00:00Z,28.1930,-82.7890,1.0,27.919,1111122 
COMPS,ioos:station:USF.COMPS:ANC:1,2012-05-01T03:06:00Z,28.1930,-82.7890,1.0,27.893,1111122 
COMPS,ioos:station:USF.COMPS:ANC:1,2012-05-01T03:12:00Z,28.1930,-82.7890,1.0,27.869,1111122 
COMPS,ioos:station:USF.COMPS:ANC:1,2012-05-01T03:18:00Z,28.1930,-82.7890,1.0,27.853,1111122 
COMPS,ioos:station:USF.COMPS:ANC:1,2012-05-01T03:24:00Z,28.1930,-82.7890,1.0,27.844,1111122 
COMPS,ioos:station:USF.COMPS:ANC:1,2012-05-01T03:30:00Z,28.1930,-82.7890,1.0,27.838,1111122 
COMPS,ioos:station:USF.COMPS:ANC:1,2012-05-01T03:36:00Z,28.1930,-82.7890,1.0,27.838,1111122 
COMPS,ioos:station:USF.COMPS:ANC:1,2012-05-01T03:42:00Z,28.1930,-82.7890,1.0,27.869,1111122 
COMPS,ioos:station:USF.COMPS:ANC:1,2012-05-01T03:48:00Z,28.1930,-82.7890,1.0,27.89,1111122 
COMPS,ioos:station:USF.COMPS:ANC:1,2012-05-01T03:54:00Z,28.1930,-82.7890,0.0,27.887,1111122 
COMPS,ioos:station:USF.COMPS:ANC:1,2012-05-01T04:00:00Z,28.1930,-82.7890,1.0,27.875,1111122 
COMPS,ioos:station:USF.COMPS:ANC:1,2012-05-01T04:06:00Z,28.1930,-82.7890,1.0,27.88,1111122 
COMPS,ioos:station:USF.COMPS:ANC:1,2012-05-01T04:12:00Z,28.1930,-82.7890,1.0,27.878,1111122 
COMPS,ioos:station:USF.COMPS:ANC:1,2012-05-01T04:18:00Z,28.1930,-82.7890,1.0,27.878,1111122 
COMPS,ioos:station:USF.COMPS:ANC:1,2012-05-01T04:24:00Z,28.1930,-82.7890,1.0,27.87,1111122 
COMPS,ioos:station:USF.COMPS:ANC:1,2012-05-01T04:30:00Z,28.1930,-82.7890,1.0,27.87,1111122 
COMPS,ioos:station:USF.COMPS:ANC:1,2012-05-01T04:36:00Z,28.1930,-82.7890,1.0,27.868,1111122 
COMPS,ioos:station:USF.COMPS:ANC:1,2012-05-01T04:42:00Z,28.1930,-82.7890,1.0,27.867,1111122 
COMPS,ioos:station:USF.COMPS:ANC:1,2012-05-01T04:48:00Z,28.1930,-82.7890,1.0,28.009,1111122 
COMPS,ioos:station:USF.COMPS:ANC:1,2012-05-01T04:54:00Z,28.1930,-82.7890,0.0,28.0,1111122 
COMPS,ioos:station:USF.COMPS:ANC:1,2012-05-01T05:00:00Z,28.1930,-82.7890,1.0,27.893,1111122 
COMPS,ioos:station:USF.COMPS:ANC:1,2012-05-01T05:06:00Z,28.1930,-82.7890,1.0,27.913,1111122 
COMPS,ioos:station:USF.COMPS:ANC:1,2012-05-01T05:12:00Z,28.1930,-82.7890,1.0,27.909,1111122 
COMPS,ioos:station:USF.COMPS:ANC:1,2012-05-01T05:18:00Z,28.1930,-82.7890,1.0,27.904,1111122 
COMPS,ioos:station:USF.COMPS:ANC:1,2012-05-01T05:24:00Z,28.1930,-82.7890,1.0,27.894,1111122 
COMPS,ioos:station:USF.COMPS:ANC:1,2012-05-01T05:30:00Z,28.1930,-82.7890,1.0,27.883,1111122 
COMPS,ioos:station:USF.COMPS:ANC:1,2012-05-01T05:36:00Z,28.1930,-82.7890,1.0,27.879,1111122 
COMPS,ioos:station:USF.COMPS:ANC:1,2012-05-01T05:42:00Z,28.1930,-82.7890,1.0,27.877,1111122 
COMPS,ioos:station:USF.COMPS:ANC:1,2012-05-01T05:48:00Z,28.1930,-82.7890,1.0,27.855,1111122 
COMPS,ioos:station:USF.COMPS:ANC:1,2012-05-01T05:54:00Z,28.1930,-82.7890,0.0,27.851,1111122 
COMPS,ioos:station:USF.COMPS:ANC:1,2012-05-01T06:54:00Z,28.1930,-82.7890,0.0,27.796,1111122 
COMPS,ioos:station:USF.COMPS:ANC:1,2012-05-01T07:00:00Z,28.1930,-82.7890,1.0,27.801,1111122 
COMPS,ioos:station:USF.COMPS:ANC:1,2012-05-01T07:06:00Z,28.1930,-82.7890,1.0,27.776,1111122 
COMPS,ioos:station:USF.COMPS:ANC:1,2012-05-01T07:12:00Z,28.1930,-82.7890,1.0,27.77,1111122 
COMPS,ioos:station:USF.COMPS:ANC:1,2012-05-01T07:18:00Z,28.1930,-82.7890,1.0,27.763,1111122 
COMPS,ioos:station:USF.COMPS:ANC:1,2012-05-01T07:24:00Z,28.1930,-82.7890,1.0,27.749,1111122 
COMPS,ioos:station:USF.COMPS:ANC:1,2012-05-01T07:30:00Z,28.1930,-82.7890,1.0,27.749,1111122 
COMPS,ioos:station:USF.COMPS:ANC:1,2012-05-01T07:36:00Z,28.1930,-82.7890,1.0,27.749,1111122 
COMPS,ioos:station:USF.COMPS:ANC:1,2012-05-01T07:42:00Z,28.1930,-82.7890,1.0,27.749,1111122 
COMPS,ioos:station:USF.COMPS:ANC:1,2012-05-01T07:48:00Z,28.1930,-82.7890,1.0,27.736,1111122 
COMPS,ioos:station:USF.COMPS:ANC:1,2012-05-01T07:54:00Z,28.1930,-82.7890,0.0,27.734,1111122 
COMPS,ioos:station:USF.COMPS:ANC:1,2012-05-01T08:00:00Z,28.1930,-82.7890,1.0,27.73,1111122 
COMPS,ioos:station:USF.COMPS:ANC:1,2012-05-01T08:06:00Z,28.1930,-82.7890,1.0,27.724,1111122 
COMPS,ioos:station:USF.COMPS:ANC:1,2012-05-01T08:12:00Z,28.1930,-82.7890,1.0,27.724,1111122 
COMPS,ioos:station:USF.COMPS:ANC:1,2012-05-01T08:18:00Z,28.1930,-82.7890,1.0,27.725,1111122 
COMPS,ioos:station:USF.COMPS:ANC:1,2012-05-01T08:24:00Z,28.1930,-82.7890,1.0,27.732,1111122 
COMPS,ioos:station:USF.COMPS:ANC:1,2012-05-01T08:30:00Z,28.1930,-82.7890,1.0,27.72,1111122 
COMPS,ioos:station:USF.COMPS:ANC:1,2012-05-01T08:36:00Z,28.1930,-82.7890,1.0,27.72,1111122 
COMPS,ioos:station:USF.COMPS:ANC:1,2012-05-01T08:42:00Z,28.1930,-82.7890,1.0,27.72,1111122 
COMPS,ioos:station:USF.COMPS:ANC:1,2012-05-01T08:48:00Z,28.1930,-82.7890,1.0,27.715,1111122 
COMPS,ioos:station:USF.COMPS:ANC:1,2012-05-01T08:54:00Z,28.1930,-82.7890,0.0,27.711,1111122 
COMPS,ioos:station:USF.COMPS:ANC:1,2012-05-01T09:00:00Z,28.1930,-82.7890,1.0,27.71,1111122 
COMPS,ioos:station:USF.COMPS:ANC:1,2012-05-01T09:06:00Z,28.1930,-82.7890,1.0,27.685,1111122 
COMPS,ioos:station:USF.COMPS:ANC:1,2012-05-01T09:12:00Z,28.1930,-82.7890,1.0,27.653,1111122 
COMPS,ioos:station:USF.COMPS:ANC:1,2012-05-01T09:18:00Z,28.1930,-82.7890,1.0,27.595,1111122 
COMPS,ioos:station:USF.COMPS:ANC:1,2012-05-01T09:24:00Z,28.1930,-82.7890,1.0,27.548,1111122 
COMPS,ioos:station:USF.COMPS:ANC:1,2012-05-01T09:30:00Z,28.1930,-82.7890,1.0,27.503,1111122 
COMPS,ioos:station:USF.COMPS:ANC:1,2012-05-01T09:36:00Z,28.1930,-82.7890,1.0,27.457,1111122 
COMPS,ioos:station:USF.COMPS:ANC:1,2012-05-01T09:42:00Z,28.1930,-82.7890,1.0,27.404,1111122 
COMPS,ioos:station:USF.COMPS:ANC:1,2012-05-01T09:48:00Z,28.1930,-82.7890,1.0,27.404,1111122 
COMPS,ioos:station:USF.COMPS:ANC:1,2012-05-01T09:54:00Z,28.1930,-82.7890,0.0,27.4,1111122 
COMPS,ioos:station:USF.COMPS:ANC:1,2012-05-01T10:00:00Z,28.1930,-82.7890,1.0,27.376,1111122 
COMPS,ioos:station:USF.COMPS:ANC:1,2012-05-01T10:06:00Z,28.1930,-82.7890,1.0,27.336,1111122 
COMPS,ioos:station:USF.COMPS:ANC:1,2012-05-01T10:12:00Z,28.1930,-82.7890,1.0,27.321,1111122 
COMPS,ioos:station:USF.COMPS:ANC:1,2012-05-01T10:18:00Z,28.1930,-82.7890,1.0,27.306,1111122 
COMPS,ioos:station:USF.COMPS:ANC:1,2012-05-01T10:24:00Z,28.1930,-82.7890,1.0,27.305,1111122 
COMPS,ioos:station:USF.COMPS:ANC:1,2012-05-01T10:30:00Z,28.1930,-82.7890,1.0,27.298,1111122 
COMPS,ioos:station:USF.COMPS:ANC:1,2012-05-01T10:36:00Z,28.1930,-82.7890,1.0,27.305,1111122 
COMPS,ioos:station:USF.COMPS:ANC:1,2012-05-01T10:42:00Z,28.1930,-82.7890,1.0,27.312,1111122 
COMPS,ioos:station:USF.COMPS:ANC:1,2012-05-01T10:48:00Z,28.1930,-82.7890,1.0,27.312,1111122 
COMPS,ioos:station:USF.COMPS:ANC:1,2012-05-01T10:54:00Z,28.1930,-82.7890,0.0,27.331,1111122 
COMPS,ioos:station:USF.COMPS:ANC:1,2012-05-01T11:00:00Z,28.1930,-82.7890,1.0,27.362,1111122 
COMPS,ioos:station:USF.COMPS:ANC:1,2012-05-01T11:06:00Z,28.1930,-82.7890,1.0,27.399,1111122 
COMPS,ioos:station:USF.COMPS:ANC:1,2012-05-01T11:12:00Z,28.1930,-82.7890,1.0,27.422,1111122 
COMPS,ioos:station:USF.COMPS:ANC:1,2012-05-01T11:18:00Z,28.1930,-82.7890,1.0,27.421,1111122 
COMPS,ioos:station:USF.COMPS:ANC:1,2012-05-01T11:24:00Z,28.1930,-82.7890,1.0,27.472,1111122 
COMPS,ioos:station:USF.COMPS:ANC:1,2012-05-01T11:30:00Z,28.1930,-82.7890,1.0,27.499,1111122 
COMPS,ioos:station:USF.COMPS:ANC:1,2012-05-01T11:36:00Z,28.1930,-82.7890,1.0,27.533,1111122 
COMPS,ioos:station:USF.COMPS:ANC:1,2012-05-01T11:42:00Z,28.1930,-82.7890,1.0,27.569,1111122 
COMPS,ioos:station:USF.COMPS:ANC:1,2012-05-01T11:48:00Z,28.1930,-82.7890,1.0,27.591,1111122 
COMPS,ioos:station:USF.COMPS:ANC:1,2012-05-01T11:54:00Z,28.1930,-82.7890,0.0,27.603,1111122 
COMPS,ioos:station:USF.COMPS:ANC:1,2012-05-01T12:00:00Z,28.1930,-82.7890,1.0,27.625,1111122 
COMPS,ioos:station:USF.COMPS:ANC:1,2012-05-01T12:06:00Z,28.1930,-82.7890,1.0,27.673,1111122 
COMPS,ioos:station:USF.COMPS:ANC:1,2012-05-01T12:12:00Z,28.1930,-82.7890,1.0,27.712,1111122 
COMPS,ioos:station:USF.COMPS:ANC:1,2012-05-01T12:18:00Z,28.1930,-82.7890,1.0,27.744,1111122 
COMPS,ioos:station:USF.COMPS:ANC:1,2012-05-01T12:24:00Z,28.1930,-82.7890,1.0,27.769,1111122 
COMPS,ioos:station:USF.COMPS:ANC:1,2012-05-01T12:30:00Z,28.1930,-82.7890,1.0,27.782,1111122 
COMPS,ioos:station:USF.COMPS:ANC:1,2012-05-01T12:36:00Z,28.1930,-82.7890,1.0,27.798,1111122 
COMPS,ioos:station:USF.COMPS:ANC:1,2012-05-01T12:42:00Z,28.1930,-82.7890,1.0,27.812,1111122 
COMPS,ioos:station:USF.COMPS:ANC:1,2012-05-01T12:48:00Z,28.1930,-82.7890,1.0,27.802,1111122 
COMPS,ioos:station:USF.COMPS:ANC:1,2012-05-01T12:54:00Z,28.1930,-82.7890,0.0,27.796,1111122 
COMPS,ioos:station:USF.COMPS:ANC:1,2012-05-01T13:00:00Z,28.1930,-82.7890,1.0,27.798,1111122 
COMPS,ioos:station:USF.COMPS:ANC:1,2012-05-01T13:06:00Z,28.1930,-82.7890,1.0,27.81,1111122 
COMPS,ioos:station:USF.COMPS:ANC:1,2012-05-01T13:12:00Z,28.1930,-82.7890,1.0,27.802,1111122 
COMPS,ioos:station:USF.COMPS:ANC:1,2012-05-01T13:18:00Z,28.1930,-82.7890,1.0,27.821,1111122 
COMPS,ioos:station:USF.COMPS:ANC:1,2012-05-01T13:24:00Z,28.1930,-82.7890,1.0,27.834,1111122 
COMPS,ioos:station:USF.COMPS:ANC:1,2012-05-01T13:30:00Z,28.1930,-82.7890,1.0,27.834,1111122 
COMPS,ioos:station:USF.COMPS:ANC:1,2012-05-01T13:36:00Z,28.1930,-82.7890,1.0,27.834,1111122 
COMPS,ioos:station:USF.COMPS:ANC:1,2012-05-01T13:42:00Z,28.1930,-82.7890,1.0,27.828,1111122 
COMPS,ioos:station:USF.COMPS:ANC:1,2012-05-01T13:48:00Z,28.1930,-82.7890,1.0,27.842,1111122 
COMPS,ioos:station:USF.COMPS:ANC:1,2012-05-01T13:54:00Z,28.1930,-82.7890,0.0,27.854,1111122 
COMPS,ioos:station:USF.COMPS:ANC:1,2012-05-01T14:00:00Z,28.1930,-82.7890,1.0,27.846,1111122 
COMPS,ioos:station:USF.COMPS:ANC:1,2012-05-01T14:06:00Z,28.1930,-82.7890,1.0,27.836,1111122 
COMPS,ioos:station:USF.COMPS:ANC:1,2012-05-01T14:12:00Z,28.1930,-82.7890,1.0,27.84,1111122 
COMPS,ioos:station:USF.COMPS:ANC:1,2012-05-01T14:18:00Z,28.1930,-82.7890,1.0,27.849,1111122 
COMPS,ioos:station:USF.COMPS:ANC:1,2012-05-01T14:24:00Z,28.1930,-82.7890,1.0,27.852,1111122 
COMPS,ioos:station:USF.COMPS:ANC:1,2012-05-01T14:30:00Z,28.1930,-82.7890,1.0,27.857,1111122 
COMPS,ioos:station:USF.COMPS:ANC:1,2012-05-01T14:36:00Z,28.1930,-82.7890,1.0,27.855,1111122 
COMPS,ioos:station:USF.COMPS:ANC:1,2012-05-01T14:42:00Z,28.1930,-82.7890,1.0,27.854,1111122 
COMPS,ioos:station:USF.COMPS:ANC:1,2012-05-01T14:48:00Z,28.1930,-82.7890,1.0,27.858,1111122 
COMPS,ioos:station:USF.COMPS:ANC:1,2012-05-01T14:54:00Z,28.1930,-82.7890,0.0,27.863,1111122 
COMPS,ioos:station:USF.COMPS:ANC:1,2012-05-01T15:00:00Z,28.1930,-82.7890,1.0,27.857,1111122 
COMPS,ioos:station:USF.COMPS:ANC:1,2012-05-01T15:06:00Z,28.1930,-82.7890,1.0,27.866,1111122 
COMPS,ioos:station:USF.COMPS:ANC:1,2012-05-01T15:12:00Z,28.1930,-82.7890,1.0,27.869,1111122 
COMPS,ioos:station:USF.COMPS:ANC:1,2012-05-01T15:18:00Z,28.1930,-82.7890,1.0,27.865,1111122 
COMPS,ioos:station:USF.COMPS:ANC:1,2012-05-01T15:24:00Z,28.1930,-82.7890,1.0,27.874,1111122 
COMPS,ioos:station:USF.COMPS:ANC:1,2012-05-01T15:30:00Z,28.1930,-82.7890,1.0,27.876,1111122 
COMPS,ioos:station:USF.COMPS:ANC:1,2012-05-01T15:36:00Z,28.1930,-82.7890,1.0,27.87,1111122 
COMPS,ioos:station:USF.COMPS:ANC:1,2012-05-01T15:42:00Z,28.1930,-82.7890,1.0,27.87,1111122 
COMPS,ioos:station:USF.COMPS:ANC:1,2012-05-01T15:48:00Z,28.1930,-82.7890,1.0,27.871,1111122 
COMPS,ioos:station:USF.COMPS:ANC:1,2012-05-01T15:54:00Z,28.1930,-82.7890,0.0,27.877,1111122 
COMPS,ioos:station:USF.COMPS:ANC:1,2012-05-01T16:00:00Z,28.1930,-82.7890,1.0,27.878,1111122 
COMPS,ioos:station:USF.COMPS:ANC:1,2012-05-01T16:06:00Z,28.1930,-82.7890,1.0,27.866,1111122 
COMPS,ioos:station:USF.COMPS:ANC:1,2012-05-01T16:12:00Z,28.1930,-82.7890,1.0,27.866,1111122 
COMPS,ioos:station:USF.COMPS:ANC:1,2012-05-01T16:18:00Z,28.1930,-82.7890,1.0,27.866,1111122 
COMPS,ioos:station:USF.COMPS:ANC:1,2012-05-01T16:24:00Z,28.1930,-82.7890,1.0,27.866,1111122 
COMPS,ioos:station:USF.COMPS:ANC:1,2012-05-01T16:30:00Z,28.1930,-82.7890,1.0,27.866,1111122 
COMPS,ioos:station:USF.COMPS:ANC:1,2012-05-01T16:36:00Z,28.1930,-82.7890,1.0,27.866,1111122 
COMPS,ioos:station:USF.COMPS:ANC:1,2012-05-01T16:42:00Z,28.1930,-82.7890,1.0,27.859,1111122 
COMPS,ioos:station:USF.COMPS:ANC:1,2012-05-01T16:48:00Z,28.1930,-82.7890,1.0,27.834,1111122 
COMPS,ioos:station:USF.COMPS:ANC:1,2012-05-01T16:54:00Z,28.1930,-82.7890,0.0,27.851,1111122 
COMPS,ioos:station:USF.COMPS:ANC:1,2012-05-01T17:00:00Z,28.1930,-82.7890,1.0,27.844,1111122 
COMPS,ioos:station:USF.COMPS:ANC:1,2012-05-01T17:06:00Z,28.1930,-82.7890,1.0,27.834,1111122 
COMPS,ioos:station:USF.COMPS:ANC:1,2012-05-01T17:12:00Z,28.1930,-82.7890,1.0,27.841,1111122 
COMPS,ioos:station:USF.COMPS:ANC:1,2012-05-01T17:18:00Z,28.1930,-82.7890,1.0,27.848,1111122 
COMPS,ioos:station:USF.COMPS:ANC:1,2012-05-01T17:24:00Z,28.1930,-82.7890,1.0,27.849,1111122 
COMPS,ioos:station:USF.COMPS:ANC:1,2012-05-01T17:30:00Z,28.1930,-82.7890,1.0,27.855,1111122 
COMPS,ioos:station:USF.COMPS:ANC:1,2012-05-01T17:36:00Z,28.1930,-82.7890,1.0,27.856,1111122 
COMPS,ioos:station:USF.COMPS:ANC:1,2012-05-01T17:42:00Z,28.1930,-82.7890,1.0,27.851,1111122 
COMPS,ioos:station:USF.COMPS:ANC:1,2012-05-01T17:48:00Z,28.1930,-82.7890,1.0,27.847,1111122 
COMPS,ioos:station:USF.COMPS:ANC:1,2012-05-01T17:54:00Z,28.1930,-82.7890,0.0,27.846,1111122 
COMPS,ioos:station:USF.COMPS:ANC:1,2012-05-01T18:00:00Z,28.1930,-82.7890,1.0,27.852,1111122 
COMPS,ioos:station:USF.COMPS:ANC:1,2012-05-01T18:06:00Z,28.1930,-82.7890,1.0,27.849,1111122 
COMPS,ioos:station:USF.COMPS:ANC:1,2012-05-01T18:12:00Z,28.1930,-82.7890,1.0,27.852,1111122 
COMPS,ioos:station:USF.COMPS:ANC:1,2012-05-01T18:18:00Z,28.1930,-82.7890,1.0,27.866,1111122 
COMPS,ioos:station:USF.COMPS:ANC:1,2012-05-01T18:24:00Z,28.1930,-82.7890,1.0,27.856,1111122 
COMPS,ioos:station:USF.COMPS:ANC:1,2012-05-01T18:30:00Z,28.1930,-82.7890,1.0,27.866,1111122 
COMPS,ioos:station:USF.COMPS:ANC:1,2012-05-01T18:36:00Z,28.1930,-82.7890,1.0,27.881,1111122 
COMPS,ioos:station:USF.COMPS:ANC:1,2012-05-01T18:42:00Z,28.1930,-82.7890,1.0,27.882,1111122 
COMPS,ioos:station:USF.COMPS:ANC:1,2012-05-01T18:48:00Z,28.1930,-82.7890,1.0,27.177,1111122 
COMPS,ioos:station:USF.COMPS:ANC:1,2012-05-01T18:54:00Z,28.1930,-82.7890,0.0,26.696,1111122 
COMPS,ioos:station:USF.COMPS:ANC:1,2012-05-01T19:00:00Z,28.1930,-82.7890,1.0,26.932,1111122 
COMPS,ioos:station:USF.COMPS:ANC:1,2012-05-01T19:06:00Z,28.1930,-82.7890,1.0,26.906,1111122 
COMPS,ioos:station:USF.COMPS:ANC:1,2012-05-01T19:12:00Z,28.1930,-82.7890,1.0,26.875,1111122 
COMPS,ioos:station:USF.COMPS:ANC:1,2012-05-01T19:18:00Z,28.1930,-82.7890,1.0,25.59,1111122 
COMPS,ioos:station:USF.COMPS:ANC:1,2012-05-01T19:24:00Z,28.1930,-82.7890,1.0,26.692,1111122 
COMPS,ioos:station:USF.COMPS:ANC:1,2012-05-01T19:30:00Z,28.1930,-82.7890,1.0,27.146,1111122 
COMPS,ioos:station:USF.COMPS:ANC:1,2012-05-01T19:36:00Z,28.1930,-82.7890,1.0,26.884,1111122 
COMPS,ioos:station:USF.COMPS:ANC:1,2012-05-01T19:42:00Z,28.1930,-82.7890,1.0,26.034,1111122 
COMPS,ioos:station:USF.COMPS:ANC:1,2012-05-01T19:48:00Z,28.1930,-82.7890,1.0,25.95,1111122 
COMPS,ioos:station:USF.COMPS:ANC:1,2012-05-01T19:54:00Z,28.1930,-82.7890,0.0,26.177,1111122 
COMPS,ioos:station:USF.COMPS:ANC:1,2012-05-01T20:00:00Z,28.1930,-82.7890,1.0,26.595,1111122 
COMPS,ioos:station:USF.COMPS:ANC:1,2012-05-01T20:06:00Z,28.1930,-82.7890,1.0,26.438,1111122 
COMPS,ioos:station:USF.COMPS:ANC:1,2012-05-01T20:12:00Z,28.1930,-82.7890,1.0,26.453,1111122 
COMPS,ioos:station:USF.COMPS:ANC:1,2012-05-01T20:18:00Z,28.1930,-82.7890,1.0,26.228,1111122 
COMPS,ioos:station:USF.COMPS:ANC:1,2012-05-01T20:24:00Z,28.1930,-82.7890,1.0,26.379,1111122 
COMPS,ioos:station:USF.COMPS:ANC:1,2012-05-01T20:30:00Z,28.1930,-82.7890,1.0,26.808,1111122 
COMPS,ioos:station:USF.COMPS:ANC:1,2012-05-01T20:36:00Z,28.1930,-82.7890,1.0,26.985,1111122 
COMPS,ioos:station:USF.COMPS:ANC:1,2012-05-01T20:42:00Z,28.1930,-82.7890,1.0,27.471,1111122 
COMPS,ioos:station:USF.COMPS:ANC:1,2012-05-01T20:48:00Z,28.1930,-82.7890,1.0,27.194,1111122 
COMPS,ioos:station:USF.COMPS:ANC:1,2012-05-01T20:54:00Z,28.1930,-82.7890,0.0,27.395,1111122 
COMPS,ioos:station:USF.COMPS:ANC:1,2012-05-01T21:00:00Z,28.1930,-82.7890,1.0,27.399,1111122 
COMPS,ioos:station:USF.COMPS:ANC:1,2012-05-01T21:06:00Z,28.1930,-82.7890,1.0,27.545,1111122 
COMPS,ioos:station:USF.COMPS:ANC:1,2012-05-01T21:12:00Z,28.1930,-82.7890,1.0,27.311,1111122 
COMPS,ioos:station:USF.COMPS:ANC:1,2012-05-01T21:18:00Z,28.1930,-82.7890,1.0,27.351,1111122 
COMPS,ioos:station:USF.COMPS:ANC:1,2012-05-01T21:24:00Z,28.1930,-82.7890,1.0,26.689,1111122 
COMPS,ioos:station:USF.COMPS:ANC:1,2012-05-01T21:30:00Z,28.1930,-82.7890,1.0,27.174,1111122 
COMPS,ioos:station:USF.COMPS:ANC:1,2012-05-01T21:36:00Z,28.1930,-82.7890,1.0,27.18,1111122 
COMPS,ioos:station:USF.COMPS:ANC:1,2012-05-01T21:42:00Z,28.1930,-82.7890,1.0,27.316,1111122 
COMPS,ioos:station:USF.COMPS:ANC:1,2012-05-01T21:48:00Z,28.1930,-82.7890,1.0,27.656,1111122 
COMPS,ioos:station:USF.COMPS:ANC:1,2012-05-01T21:54:00Z,28.1930,-82.7890,0.0,27.643,1111122 
COMPS,ioos:station:USF.COMPS:ANC:1,2012-05-01T22:00:00Z,28.1930,-82.7890,1.0,27.766,1111122 
COMPS,ioos:station:USF.COMPS:ANC:1,2012-05-01T22:06:00Z,28.1930,-82.7890,1.0,27.796,1111122 
COMPS,ioos:station:USF.COMPS:ANC:1,2012-05-01T22:12:00Z,28.1930,-82.7890,1.0,27.738,1111122 
COMPS,ioos:station:USF.COMPS:ANC:1,2012-05-01T22:18:00Z,28.1930,-82.7890,1.0,27.755,1111122 
COMPS,ioos:station:USF.COMPS:ANC:1,2012-05-01T22:24:00Z,28.1930,-82.7890,1.0,27.708,1111122 
COMPS,ioos:station:USF.COMPS:ANC:1,2012-05-01T22:30:00Z,28.1930,-82.7890,1.0,27.506,1111122 
COMPS,ioos:station:USF.COMPS:ANC:1,2012-05-01T22:36:00Z,28.1930,-82.7890,1.0,27.646,1111122 
COMPS,ioos:station:USF.COMPS:ANC:1,2012-05-01T22:42:00Z,28.1930,-82.7890,1.0,27.657,1111122 
COMPS,ioos:station:USF.COMPS:ANC:1,2012-05-01T22:48:00Z,28.1930,-82.7890,1.0,27.67,1111122 
COMPS,ioos:station:USF.COMPS:ANC:1,2012-05-01T22:54:00Z,28.1930,-82.7890,0.0,27.679,1111122 
COMPS,ioos:station:USF.COMPS:ANC:1,2012-05-01T23:00:00Z,28.1930,-82.7890,1.0,27.698,1111122 
COMPS,ioos:station:USF.COMPS:ANC:1,2012-05-01T23:06:00Z,28.1930,-82.7890,1.0,27.708,1111122 
COMPS,ioos:station:USF.COMPS:ANC:1,2012-05-01T23:12:00Z,28.1930,-82.7890,1.0,27.731,1111122 
COMPS,ioos:station:USF.COMPS:ANC:1,2012-05-01T23:18:00Z,28.1930,-82.7890,1.0,27.736,1111122 
COMPS,ioos:station:USF.COMPS:ANC:1,2012-05-01T23:24:00Z,28.1930,-82.7890,1.0,27.813,1111122 
COMPS,ioos:station:USF.COMPS:ANC:1,2012-05-01T23:30:00Z,28.1930,-82.7890,1.0,27.792,1111122 
COMPS,ioos:station:USF.COMPS:ANC:1,2012-05-01T23:36:00Z,28.1930,-82.7890,1.0,27.864,1111122 
COMPS,ioos:station:USF.COMPS:ANC:1,2012-05-01T23:42:00Z,28.1930,-82.7890,1.0,27.817,1111122 
COMPS,ioos:station:USF.COMPS:ANC:1,2012-05-01T23:48:00Z,28.1930,-82.7890,1.0,27.836,1111122 
COMPS,ioos:station:USF.COMPS:ANC:1,2012-05-01T23:54:00Z,28.1930,-82.7890,0.0,27.841,1111122 
COMPS,ioos:station:USF.COMPS:ANC:1,2012-05-02T00:00:00Z,28.1930,-82.7890,1.0,27.907,1111122 
COMPS,ioos:station:USF.COMPS:ANC:1,2012-05-02T00:06:00Z,28.1930,-82.7890,1.0,27.933,1111122 
COMPS,ioos:station:USF.COMPS:ANC:1,2012-05-02T00:12:00Z,28.1930,-82.7890,1.0,27.83,1111122 
COMPS,ioos:station:USF.COMPS:ANC:1,2012-05-02T00:18:00Z,28.1930,-82.7890,1.0,27.84,1111122 
COMPS,ioos:station:USF.COMPS:ANC:1,2012-05-02T00:24:00Z,28.1930,-82.7890,1.0,27.847,1111122 
COMPS,ioos:station:USF.COMPS:ANC:1,2012-05-02T00:30:00Z,28.1930,-82.7890,1.0,27.86,1111122 
COMPS,ioos:station:USF.COMPS:ANC:1,2012-05-02T00:36:00Z,28.1930,-82.7890,1.0,27.85,1111122 
COMPS,ioos:station:USF.COMPS:ANC:1,2012-05-02T00:42:00Z,28.1930,-82.7890,1.0,27.862,1111122 
COMPS,ioos:station:USF.COMPS:ANC:1,2012-05-02T00:48:00Z,28.1930,-82.7890,1.0,27.911,1111122 
COMPS,ioos:station:USF.COMPS:ANC:1,2012-05-02T00:54:00Z,28.1930,-82.7890,0.0,28.113,1111122 
COMPS,ioos:station:USF.COMPS:ANC:1,2012-05-02T01:00:00Z,28.1930,-82.7890,1.0,28.13,1111122 
COMPS,ioos:station:USF.COMPS:ANC:1,2012-05-02T01:06:00Z,28.1930,-82.7890,1.0,28.126,1111122 
COMPS,ioos:station:USF.COMPS:ANC:1,2012-05-02T01:12:00Z,28.1930,-82.7890,1.0,28.139,1111122 
COMPS,ioos:station:USF.COMPS:ANC:1,2012-05-02T01:18:00Z,28.1930,-82.7890,1.0,28.147,1111122 
COMPS,ioos:station:USF.COMPS:ANC:1,2012-05-02T01:24:00Z,28.1930,-82.7890,1.0,28.16,1111122 
COMPS,ioos:station:USF.COMPS:ANC:1,2012-05-02T01:30:00Z,28.1930,-82.7890,1.0,28.168,1111122 
COMPS,ioos:station:USF.COMPS:ANC:1,2012-05-02T01:36:00Z,28.1930,-82.7890,1.0,28.167,1111122 
COMPS,ioos:station:USF.COMPS:ANC:1,2012-05-02T01:42:00Z,28.1930,-82.7890,1.0,28.179,1111122 
COMPS,ioos:station:USF.COMPS:ANC:1,2012-05-02T01:48:00Z,28.1930,-82.7890,1.0,28.191,1111122 
COMPS,ioos:station:USF.COMPS:ANC:1,2012-05-02T01:54:00Z,28.1930,-82.7890,0.0,28.17,1111122 
COMPS,ioos:station:USF.COMPS:ANC:1,2012-05-02T02:00:00Z,28.1930,-82.7890,1.0,28.191,1111122 
COMPS,ioos:station:USF.COMPS:ANC:1,2012-05-02T02:06:00Z,28.1930,-82.7890,1.0,28.197,1111122 
COMPS,ioos:station:USF.COMPS:ANC:1,2012-05-02T02:12:00Z,28.1930,-82.7890,1.0,28.209,1111122 
COMPS,ioos:station:USF.COMPS:ANC:1,2012-05-02T02:18:00Z,28.1930,-82.7890,1.0,28.208,1111122 
COMPS,ioos:station:USF.COMPS:ANC:1,2012-05-02T02:24:00Z,28.1930,-82.7890,1.0,28.208,1111122 
COMPS,ioos:station:USF.COMPS:ANC:1,2012-05-02T02:30:00Z,28.1930,-82.7890,1.0,28.215,1111122 